TBV9138 SBBR-SCEL

Flight info

Callsign TBV9138
Flight time N/A
Altitude 32000
Route SIREM UM403 VAS UM529 ARPAS UZ124 FSA DCT GUKAS DCT SUKPA DCT UMKAL UMKAL7C
Aircraft A339/H-SADE1E2E3GHIJ3J5M1P2RWXY/LB2D1

Departure

Time 2026-05-04 18:37
Airport Presidente Juscelino Kubitschek International Airport (SBBR)

Arrival

Time N/A
Airport Comodoro Arturo Merino Benítez International Airport (SCEL)
Time Latitude Longitude Altitude Speed Heading
2026-05-04 18:06 -15.86721 -47.91973 3476 ft 0 kts 181°
2026-05-04 18:26 -15.86720 -47.91973 3476 ft 1 kts 181°
2026-05-04 18:27 -15.86707 -47.91973 3471 ft 3 kts 181°
2026-05-04 18:27 -15.86686 -47.91972 3474 ft 3 kts 181°
2026-05-04 18:27 -15.86667 -47.91972 3473 ft 2 kts 181°
2026-05-04 18:27 -15.86651 -47.91973 3471 ft 3 kts 201°
2026-05-04 18:28 -15.86636 -47.91968 3470 ft 3 kts 234°
2026-05-04 18:28 -15.86626 -47.91952 3470 ft 3 kts 256°
2026-05-04 18:28 -15.86622 -47.91934 3470 ft 2 kts 267°
2026-05-04 18:28 -15.86622 -47.91931 3470 ft 0 kts 268°
2026-05-04 18:34 -15.86622 -47.91933 3470 ft 2 kts 267°
2026-05-04 18:34 -15.86627 -47.92016 3471 ft 22 kts 266°
2026-05-04 18:34 -15.86612 -47.92211 3470 ft 29 kts 303°
2026-05-04 18:34 -15.86530 -47.92374 3471 ft 22 kts 282°
2026-05-04 18:35 -15.86540 -47.92532 3467 ft 22 kts 268°
2026-05-04 18:35 -15.86547 -47.92692 3466 ft 23 kts 271°
2026-05-04 18:35 -15.86529 -47.92762 3463 ft 2 kts 317°
2026-05-04 18:35 -15.86501 -47.92764 3465 ft 5 kts 353°
2026-05-04 18:36 -15.86463 -47.92769 3464 ft 6 kts 353°
2026-05-04 18:36 -15.86406 -47.92755 3464 ft 18 kts 25°
2026-05-04 18:36 -15.86348 -47.92615 3466 ft 43 kts 86°
2026-05-04 18:36 -15.86329 -47.92037 3474 ft 115 kts 84°
2026-05-04 18:37 -15.86248 -47.90987 3501 ft 173 kts 86°
2026-05-04 18:37 -15.86122 -47.89727 4198 ft 173 kts 84°
2026-05-04 18:37 -15.86021 -47.88492 5034 ft 171 kts 87°
2026-05-04 18:37 -15.85953 -47.87220 5586 ft 184 kts 86°
2026-05-04 18:38 -15.85877 -47.85820 5939 ft 204 kts 86°
2026-05-04 18:38 -15.85784 -47.84272 6187 ft 225 kts 86°
2026-05-04 18:38 -15.85677 -47.82574 6492 ft 245 kts 86°
2026-05-04 18:38 -15.85681 -47.80738 6656 ft 265 kts 100°
2026-05-04 18:39 -15.86420 -47.78959 7050 ft 275 kts 126°
2026-05-04 18:39 -15.87881 -47.77660 7613 ft 282 kts 151°
2026-05-04 18:39 -15.89780 -47.77104 8147 ft 289 kts 176°
2026-05-04 18:39 -15.91772 -47.77418 8723 ft 293 kts 200°
2026-05-04 18:40 -15.93604 -47.78319 9051 ft 297 kts 209°
2026-05-04 18:40 -15.95412 -47.79364 9153 ft 296 kts 209°
2026-05-04 18:40 -15.97248 -47.80345 9157 ft 297 kts 206°
2026-05-04 18:40 -15.99132 -47.81234 9152 ft 297 kts 203°
2026-05-04 18:41 -16.01042 -47.82055 9146 ft 296 kts 202°
2026-05-04 18:41 -16.02961 -47.82839 9141 ft 297 kts 201°
2026-05-04 18:41 -16.04884 -47.83649 9115 ft 298 kts 207°
2026-05-04 18:41 -16.06485 -47.85004 9341 ft 299 kts 233°
2026-05-04 18:42 -16.07388 -47.86928 9998 ft 296 kts 258°
2026-05-04 18:42 -16.07620 -47.89054 10471 ft 301 kts 269°
2026-05-04 18:42 -16.07638 -47.91265 10620 ft 318 kts 272°
2026-05-04 18:42 -16.07642 -47.93626 10767 ft 335 kts 270°
2026-05-04 18:43 -16.07727 -47.96097 11007 ft 348 kts 266°
2026-05-04 18:43 -16.08207 -47.98575 11487 ft 352 kts 253°
2026-05-04 18:43 -16.09163 -48.00932 11953 ft 355 kts 242°
2026-05-04 18:43 -16.10385 -48.03174 12378 ft 359 kts 241°
2026-05-04 18:44 -16.11612 -48.05446 12864 ft 361 kts 241°
2026-05-04 18:44 -16.12025 -48.06219 13015 ft 363 kts 241°
2026-05-04 18:44 -16.13645 -48.09278 13618 ft 366 kts 242°
2026-05-04 18:44 -16.14873 -48.11612 14011 ft 369 kts 242°
2026-05-04 18:45 -16.16108 -48.13960 14428 ft 370 kts 242°
2026-05-04 18:45 -16.17347 -48.16315 14867 ft 371 kts 241°
2026-05-04 18:45 -16.18589 -48.18678 15295 ft 373 kts 241°
2026-05-04 18:45 -16.19835 -48.21047 15729 ft 374 kts 241°
2026-05-04 18:46 -16.21086 -48.23428 16141 ft 376 kts 241°
2026-05-04 18:46 -16.22343 -48.25821 16559 ft 377 kts 241°
2026-05-04 18:46 -16.23626 -48.28213 16963 ft 379 kts 238°
2026-05-04 18:46 -16.25155 -48.30451 17353 ft 380 kts 230°
2026-05-04 18:47 -16.26934 -48.32495 17767 ft 382 kts 227°
2026-05-04 18:47 -16.28744 -48.34532 18207 ft 384 kts 227°
2026-05-04 18:47 -16.30550 -48.36585 18592 ft 385 kts 227°
2026-05-04 18:47 -16.32361 -48.38655 18945 ft 387 kts 227°
2026-05-04 18:48 -16.34175 -48.40733 19324 ft 388 kts 227°
2026-05-04 18:48 -16.35995 -48.42818 19718 ft 389 kts 227°
2026-05-04 18:48 -16.37820 -48.44909 20078 ft 392 kts 227°
2026-05-04 18:48 -16.39661 -48.47020 20447 ft 394 kts 227°
2026-05-04 18:49 -16.41507 -48.49135 20811 ft 396 kts 227°
2026-05-04 18:49 -16.43367 -48.51268 21185 ft 398 kts 227°
2026-05-04 18:49 -16.45211 -48.53381 21571 ft 400 kts 227°
2026-05-04 18:49 -16.47084 -48.55528 21945 ft 402 kts 227°
2026-05-04 18:50 -16.48972 -48.57693 22328 ft 404 kts 227°
2026-05-04 18:50 -16.50868 -48.59869 22711 ft 406 kts 227°
2026-05-04 18:50 -16.52772 -48.62054 23114 ft 408 kts 227°
2026-05-04 18:50 -16.54693 -48.64251 23486 ft 410 kts 226°
2026-05-04 18:51 -16.56771 -48.66306 23837 ft 412 kts 221°
2026-05-04 18:51 -16.58914 -48.68296 24199 ft 413 kts 222°
2026-05-04 18:51 -16.61057 -48.70299 24579 ft 414 kts 222°
2026-05-04 18:51 -16.63201 -48.72311 24924 ft 415 kts 222°
2026-05-04 18:52 -16.65351 -48.74333 25290 ft 416 kts 223°
2026-05-04 18:52 -16.67505 -48.76359 25644 ft 418 kts 223°
2026-05-04 18:52 -16.69664 -48.78390 26007 ft 419 kts 223°
2026-05-04 18:52 -16.71830 -48.80429 26353 ft 420 kts 223°
2026-05-04 18:53 -16.74004 -48.82474 26737 ft 421 kts 223°
2026-05-04 18:53 -16.76182 -48.84524 27089 ft 422 kts 223°
2026-05-04 18:53 -16.78341 -48.86556 27437 ft 424 kts 223°
2026-05-04 18:53 -16.80533 -48.88622 27766 ft 426 kts 223°
2026-05-04 18:54 -16.82737 -48.90698 28105 ft 427 kts 223°
2026-05-04 18:54 -16.84945 -48.92780 28454 ft 428 kts 223°
2026-05-04 18:54 -16.87160 -48.94869 28786 ft 430 kts 224°
2026-05-04 18:54 -16.89386 -48.96969 29125 ft 431 kts 224°
2026-05-04 18:55 -16.91617 -48.99075 29452 ft 433 kts 224°
2026-05-04 18:55 -16.96129 -49.03286 30128 ft 436 kts 223°
2026-05-04 18:55 -16.98401 -49.05399 30440 ft 437 kts 223°
2026-05-04 18:56 -17.00671 -49.07513 30806 ft 437 kts 223°
2026-05-04 18:56 -17.02943 -49.09632 31156 ft 438 kts 223°
2026-05-04 18:56 -17.05219 -49.11756 31461 ft 439 kts 223°
2026-05-04 18:56 -17.07501 -49.13887 31802 ft 440 kts 224°
2026-05-04 18:57 -17.09775 -49.16044 31963 ft 441 kts 224°
2026-05-04 18:57 -17.12018 -49.18196 32005 ft 447 kts 224°
2026-05-04 18:57 -17.16649 -49.22644 32004 ft 454 kts 224°
2026-05-04 18:58 -17.21303 -49.27100 32004 ft 453 kts 224°
2026-05-04 18:58 -17.25956 -49.31556 32003 ft 453 kts 224°
2026-05-04 18:59 -17.30607 -49.36012 32000 ft 453 kts 224°
2026-05-04 18:59 -17.35250 -49.40462 31994 ft 452 kts 224°
2026-05-04 19:00 -17.39892 -49.44914 31997 ft 452 kts 224°
2026-05-04 19:00 -17.44511 -49.49346 31992 ft 452 kts 224°
2026-05-04 19:01 -17.49156 -49.53807 31992 ft 452 kts 224°
2026-05-04 19:01 -17.53793 -49.58265 31995 ft 452 kts 224°
2026-05-04 19:02 -17.58425 -49.62720 31991 ft 452 kts 224°
2026-05-04 19:02 -17.63035 -49.67158 31989 ft 452 kts 224°
2026-05-04 19:03 -17.67668 -49.71620 31987 ft 452 kts 224°
2026-05-04 19:03 -17.72298 -49.76084 31995 ft 451 kts 224°
2026-05-04 19:04 -17.76922 -49.80544 31993 ft 451 kts 224°
2026-05-04 19:04 -17.81541 -49.85005 31990 ft 451 kts 224°
2026-05-04 19:05 -17.86159 -49.89467 31997 ft 451 kts 224°
2026-05-04 19:05 -17.90777 -49.93934 31975 ft 451 kts 224°
2026-05-04 19:06 -17.95359 -49.98373 31996 ft 450 kts 224°
2026-05-04 19:06 -17.99966 -50.02840 31997 ft 450 kts 224°
2026-05-04 19:07 -18.04594 -50.07288 31980 ft 451 kts 224°
2026-05-04 19:07 -18.09228 -50.11715 31983 ft 450 kts 224°
2026-05-04 19:08 -18.13861 -50.16153 31986 ft 450 kts 224°
2026-05-04 19:08 -18.18493 -50.20597 31990 ft 450 kts 224°
2026-05-04 19:09 -18.23125 -50.25045 31988 ft 450 kts 224°
2026-05-04 19:09 -18.27751 -50.29490 31990 ft 450 kts 224°
2026-05-04 19:10 -18.32376 -50.33937 31989 ft 450 kts 224°
2026-05-04 19:10 -18.37008 -50.38395 31993 ft 451 kts 224°
2026-05-04 19:11 -18.41634 -50.42849 31986 ft 451 kts 224°
2026-05-04 19:11 -18.46233 -50.47281 31989 ft 451 kts 224°
2026-05-04 19:12 -18.53189 -50.53955 31988 ft 450 kts 224°
2026-05-04 19:13 -18.57841 -50.58382 31987 ft 450 kts 224°
2026-05-04 19:13 -18.62488 -50.62816 31992 ft 450 kts 224°
2026-05-04 19:14 -18.67100 -50.67223 31987 ft 450 kts 224°
2026-05-04 19:14 -18.71740 -50.71659 31984 ft 450 kts 224°
2026-05-04 19:15 -18.76377 -50.76098 31996 ft 450 kts 224°
2026-05-04 19:15 -18.81010 -50.80535 31976 ft 450 kts 224°
2026-05-04 19:16 -18.85665 -50.84982 31979 ft 450 kts 224°
2026-05-04 19:16 -18.90259 -50.89496 31973 ft 450 kts 225°
2026-05-04 19:17 -18.94837 -50.94026 31974 ft 451 kts 225°
2026-05-04 19:17 -18.99424 -50.98550 31974 ft 451 kts 225°
2026-05-04 19:18 -19.04015 -51.03076 31978 ft 451 kts 225°
2026-05-04 19:18 -19.08574 -51.07574 31972 ft 451 kts 225°
2026-05-04 19:19 -19.13162 -51.12104 31974 ft 451 kts 225°
2026-05-04 19:19 -19.17752 -51.16640 31975 ft 451 kts 225°
2026-05-04 19:20 -19.22340 -51.21178 31972 ft 452 kts 225°
2026-05-04 19:20 -19.26925 -51.25716 31973 ft 451 kts 225°
2026-05-04 19:21 -19.31509 -51.30256 32289 ft 452 kts 225°
2026-05-04 19:21 -19.33814 -51.32542 32541 ft 450 kts 225°
2026-05-04 19:21 -19.36098 -51.34807 32802 ft 449 kts 225°
2026-05-04 19:21 -19.38376 -51.37066 33042 ft 448 kts 225°
2026-05-04 19:22 -19.40646 -51.39319 33288 ft 447 kts 225°
2026-05-04 19:22 -19.42885 -51.41541 33526 ft 446 kts 225°
2026-05-04 19:22 -19.45143 -51.43784 33772 ft 445 kts 225°
2026-05-04 19:22 -19.47396 -51.46023 34013 ft 443 kts 225°
2026-05-04 19:23 -19.49642 -51.48255 34243 ft 442 kts 225°
2026-05-04 19:23 -19.51884 -51.50484 34508 ft 439 kts 225°
2026-05-04 19:23 -19.54106 -51.52694 34790 ft 436 kts 225°
2026-05-04 19:23 -19.56312 -51.54890 35037 ft 434 kts 225°
2026-05-04 19:24 -19.58511 -51.57079 35286 ft 432 kts 225°
2026-05-04 19:24 -19.60695 -51.59255 35529 ft 430 kts 225°
2026-05-04 19:24 -19.62869 -51.61421 35787 ft 427 kts 225°
2026-05-04 19:24 -19.65029 -51.63573 36035 ft 425 kts 225°
2026-05-04 19:25 -19.67180 -51.65719 36269 ft 423 kts 225°
2026-05-04 19:25 -19.69281 -51.67828 36499 ft 420 kts 226°
2026-05-04 19:25 -19.71394 -51.69961 36754 ft 418 kts 226°
2026-05-04 19:25 -19.73494 -51.72082 36982 ft 416 kts 226°
2026-05-04 19:26 -19.75592 -51.74202 37200 ft 414 kts 226°
2026-05-04 19:26 -19.77677 -51.76306 37448 ft 412 kts 226°
2026-05-04 19:26 -19.79756 -51.78405 37656 ft 410 kts 226°
2026-05-04 19:26 -19.81821 -51.80490 37882 ft 408 kts 226°
2026-05-04 19:27 -19.83876 -51.82565 37967 ft 407 kts 226°
2026-05-04 19:27 -19.87942 -51.86674 37969 ft 405 kts 226°
2026-05-04 19:28 -19.92045 -51.90804 37992 ft 406 kts 226°
2026-05-04 19:28 -19.96149 -51.94931 37997 ft 406 kts 226°
2026-05-04 19:29 -20.00250 -51.99061 37973 ft 406 kts 226°
2026-05-04 19:29 -20.04350 -52.03195 37974 ft 405 kts 226°
2026-05-04 19:30 -20.08413 -52.07295 37970 ft 405 kts 226°
2026-05-04 19:30 -20.12499 -52.11421 37976 ft 405 kts 226°
2026-05-04 19:31 -20.16590 -52.15554 37972 ft 405 kts 226°
2026-05-04 19:31 -20.20676 -52.19686 37975 ft 405 kts 226°
2026-05-04 19:32 -20.24760 -52.23818 37971 ft 404 kts 226°
2026-05-04 19:32 -20.28148 -52.27249 37970 ft 404 kts 226°
2026-05-04 19:33 -20.32888 -52.32052 37983 ft 404 kts 226°
2026-05-04 19:33 -20.36275 -52.35484 37975 ft 404 kts 226°
2026-05-04 19:34 -20.40348 -52.39613 37975 ft 403 kts 226°
2026-05-04 19:34 -20.44412 -52.43736 37973 ft 403 kts 226°
2026-05-04 19:35 -20.48477 -52.47864 37980 ft 403 kts 226°
2026-05-04 19:35 -20.52536 -52.51990 37976 ft 403 kts 226°
2026-05-04 19:36 -20.56604 -52.56127 37979 ft 403 kts 226°
2026-05-04 19:36 -20.60641 -52.60236 37981 ft 403 kts 226°
2026-05-04 19:37 -20.64699 -52.64370 37983 ft 402 kts 226°
2026-05-04 19:37 -20.68756 -52.68503 37975 ft 402 kts 226°
2026-05-04 19:38 -20.72806 -52.72631 37978 ft 402 kts 226°
2026-05-04 19:38 -20.76852 -52.76758 37974 ft 402 kts 226°
2026-05-04 19:39 -20.80900 -52.80891 37980 ft 402 kts 226°
2026-05-04 19:39 -20.84918 -52.84996 37981 ft 402 kts 226°
2026-05-04 19:40 -20.88991 -52.89099 37979 ft 402 kts 225°
2026-05-04 19:40 -20.93082 -52.93187 37981 ft 402 kts 225°
2026-05-04 19:41 -20.97162 -52.97277 37980 ft 402 kts 225°
2026-05-04 19:41 -21.01219 -53.01352 37980 ft 402 kts 225°
2026-05-04 19:42 -21.05299 -53.05455 37976 ft 401 kts 225°
2026-05-04 19:42 -21.09365 -53.09549 37977 ft 401 kts 226°
2026-05-04 19:43 -21.13358 -53.13732 37980 ft 401 kts 227°
2026-05-04 19:43 -21.17305 -53.17915 37984 ft 401 kts 226°
2026-05-04 19:44 -21.21282 -53.22108 37983 ft 401 kts 226°
2026-05-04 19:44 -21.25265 -53.26302 37984 ft 401 kts 226°
2026-05-04 19:45 -21.29241 -53.30493 37974 ft 401 kts 226°
2026-05-04 19:45 -21.33221 -53.34691 37973 ft 401 kts 226°
2026-05-04 19:46 -21.37170 -53.38860 37977 ft 401 kts 226°
2026-05-04 19:46 -21.41167 -53.43083 37976 ft 401 kts 226°
2026-05-04 19:47 -21.45113 -53.47256 37980 ft 401 kts 226°
2026-05-04 19:47 -21.49131 -53.51412 37976 ft 401 kts 225°
2026-05-04 19:48 -21.53189 -53.55531 37974 ft 401 kts 225°
2026-05-04 19:48 -21.57243 -53.59668 37971 ft 401 kts 226°
2026-05-04 19:49 -21.61283 -53.63804 37969 ft 401 kts 226°
2026-05-04 19:49 -21.65325 -53.67946 37971 ft 401 kts 226°
2026-05-04 19:50 -21.69362 -53.72089 37969 ft 401 kts 226°
2026-05-04 19:50 -21.73376 -53.76210 37967 ft 401 kts 226°
2026-05-04 19:51 -21.77416 -53.80360 37969 ft 401 kts 226°
2026-05-04 19:51 -21.81450 -53.84509 37970 ft 401 kts 226°
2026-05-04 19:52 -21.85484 -53.88662 37972 ft 401 kts 226°
2026-05-04 19:52 -21.89491 -53.92789 37969 ft 401 kts 226°
2026-05-04 19:53 -21.93520 -53.96942 37979 ft 400 kts 226°
2026-05-04 19:53 -21.97541 -54.01091 37963 ft 400 kts 226°
2026-05-04 19:54 -22.01565 -54.05247 37952 ft 400 kts 226°
2026-05-04 19:54 -22.05583 -54.09399 37948 ft 400 kts 226°
2026-05-04 19:55 -22.09603 -54.13558 37952 ft 400 kts 226°
2026-05-04 19:55 -22.13591 -54.17686 37959 ft 400 kts 226°
2026-05-04 19:56 -22.17609 -54.21849 37984 ft 400 kts 226°
2026-05-04 19:56 -22.21627 -54.26016 37984 ft 399 kts 226°
2026-05-04 19:57 -22.25634 -54.30174 37960 ft 399 kts 226°
2026-05-04 19:57 -22.29614 -54.34308 37961 ft 399 kts 226°
2026-05-04 19:58 -22.33620 -54.38473 37965 ft 399 kts 226°
2026-05-04 19:58 -22.37626 -54.42640 37967 ft 399 kts 226°
2026-05-04 19:59 -22.41625 -54.46804 37968 ft 399 kts 226°
2026-05-04 19:59 -22.45620 -54.50967 37967 ft 399 kts 226°
2026-05-04 20:00 -22.49611 -54.55131 37968 ft 399 kts 226°
2026-05-04 20:00 -22.53604 -54.59299 37968 ft 399 kts 226°
2026-05-04 20:01 -22.57586 -54.63465 37971 ft 398 kts 226°
2026-05-04 20:01 -22.61563 -54.67647 37970 ft 398 kts 226°
2026-05-04 20:02 -22.65506 -54.71795 37970 ft 398 kts 226°
2026-05-04 20:02 -22.69478 -54.75975 37967 ft 398 kts 226°
2026-05-04 20:03 -22.73448 -54.80155 37967 ft 398 kts 226°
2026-05-04 20:03 -22.77421 -54.84342 37968 ft 397 kts 226°
2026-05-04 20:04 -22.81382 -54.88520 37972 ft 397 kts 226°
2026-05-04 20:04 -22.85311 -54.92669 37971 ft 397 kts 226°
2026-05-04 20:05 -22.89265 -54.96847 37967 ft 397 kts 226°
2026-05-04 20:05 -22.93221 -55.01031 37964 ft 397 kts 226°
2026-05-04 20:06 -22.97174 -55.05216 37971 ft 397 kts 226°
2026-05-04 20:06 -23.01123 -55.09400 37967 ft 397 kts 226°
2026-05-04 20:07 -23.05082 -55.13598 37968 ft 397 kts 226°
2026-05-04 20:07 -23.09028 -55.17785 37963 ft 396 kts 226°
2026-05-04 20:08 -23.12948 -55.21950 37959 ft 396 kts 226°
2026-05-04 20:08 -23.16891 -55.26141 37966 ft 396 kts 226°
2026-05-04 20:09 -23.20836 -55.30339 37968 ft 397 kts 226°
2026-05-04 20:09 -23.24780 -55.34538 37966 ft 397 kts 226°
2026-05-04 20:10 -23.28728 -55.38746 37961 ft 397 kts 226°
2026-05-04 20:10 -23.32675 -55.42957 37958 ft 397 kts 226°
2026-05-04 20:11 -23.36621 -55.47170 37961 ft 397 kts 227°
2026-05-04 20:11 -23.40563 -55.51383 37963 ft 397 kts 227°
2026-05-04 20:12 -23.44509 -55.55603 37959 ft 397 kts 227°
2026-05-04 20:12 -23.48452 -55.59823 37945 ft 397 kts 227°
2026-05-04 20:13 -23.52369 -55.64019 37942 ft 397 kts 227°
2026-05-04 20:13 -23.56312 -55.68247 37945 ft 397 kts 227°
2026-05-04 20:14 -23.60258 -55.72480 37948 ft 398 kts 227°
2026-05-04 20:14 -23.64200 -55.76715 37938 ft 398 kts 227°
2026-05-04 20:15 -23.68135 -55.80945 37939 ft 397 kts 227°
2026-05-04 20:15 -23.72078 -55.85184 37939 ft 397 kts 227°
2026-05-04 20:16 -23.75989 -55.89393 37939 ft 397 kts 227°
2026-05-04 20:16 -23.79922 -55.93630 37935 ft 397 kts 227°
2026-05-04 20:17 -23.83854 -55.97869 37931 ft 397 kts 227°
2026-05-04 20:17 -23.87788 -56.02115 37935 ft 397 kts 227°
2026-05-04 20:18 -23.91719 -56.06360 37932 ft 397 kts 227°
2026-05-04 20:18 -23.95643 -56.10602 37932 ft 397 kts 227°
2026-05-04 20:19 -23.99569 -56.14851 37932 ft 397 kts 227°
2026-05-04 20:19 -24.03495 -56.19103 37931 ft 397 kts 227°
2026-05-04 20:20 -24.06754 -56.22636 37928 ft 397 kts 227°
2026-05-04 20:20 -24.11311 -56.27579 37927 ft 397 kts 227°
2026-05-04 20:21 -24.14595 -56.31146 37927 ft 397 kts 227°
2026-05-04 20:21 -24.20467 -56.37530 37930 ft 397 kts 227°
2026-05-04 20:22 -24.24385 -56.41794 37927 ft 396 kts 227°
2026-05-04 20:22 -24.28271 -56.46028 37931 ft 396 kts 227°
2026-05-04 20:23 -24.32185 -56.50295 37927 ft 396 kts 227°
2026-05-04 20:23 -24.36090 -56.54557 37929 ft 396 kts 227°
2026-05-04 20:24 -24.40000 -56.58830 37925 ft 396 kts 227°
2026-05-04 20:24 -24.43907 -56.63101 37926 ft 396 kts 227°
2026-05-04 20:25 -24.47812 -56.67374 37931 ft 396 kts 227°
2026-05-04 20:25 -24.51719 -56.71654 37924 ft 396 kts 227°
2026-05-04 20:26 -24.55594 -56.75903 37921 ft 396 kts 227°
2026-05-04 20:26 -24.59499 -56.80189 37923 ft 396 kts 228°
2026-05-04 20:27 -24.63405 -56.84479 37924 ft 396 kts 228°
2026-05-04 20:27 -24.67302 -56.88765 37921 ft 396 kts 228°
2026-05-04 20:28 -24.71193 -56.93059 37922 ft 396 kts 228°
2026-05-04 20:28 -24.75085 -56.97358 37929 ft 396 kts 228°
2026-05-04 20:29 -24.78979 -57.01662 37921 ft 396 kts 228°
2026-05-04 20:29 -24.82843 -57.05937 37918 ft 396 kts 228°
2026-05-04 20:30 -24.86731 -57.10241 37921 ft 396 kts 228°
2026-05-04 20:30 -24.90616 -57.14547 37919 ft 396 kts 228°
2026-05-04 20:31 -24.94496 -57.18852 37923 ft 396 kts 228°
2026-05-04 20:31 -24.98374 -57.23158 37925 ft 396 kts 228°
2026-05-04 20:32 -25.02258 -57.27476 37921 ft 396 kts 228°
2026-05-04 20:32 -25.06132 -57.31785 37919 ft 396 kts 228°
2026-05-04 20:33 -25.10012 -57.36106 37918 ft 396 kts 228°
2026-05-04 20:33 -25.13860 -57.40395 37916 ft 396 kts 228°
2026-05-04 20:34 -25.17737 -57.44722 37914 ft 396 kts 228°
2026-05-04 20:34 -25.21608 -57.49044 37916 ft 396 kts 229°
2026-05-04 20:35 -25.25769 -57.53070 37910 ft 400 kts 221°
2026-05-04 20:35 -25.30419 -57.56506 37908 ft 402 kts 218°
2026-05-04 20:36 -25.35074 -57.59869 37913 ft 402 kts 218°
2026-05-04 20:36 -25.39759 -57.63263 37913 ft 403 kts 218°
2026-05-04 20:37 -25.44448 -57.66659 37917 ft 403 kts 218°
2026-05-04 20:37 -25.49141 -57.70059 37917 ft 403 kts 218°
2026-05-04 20:38 -25.53833 -57.73462 37916 ft 403 kts 218°
2026-05-04 20:38 -25.58527 -57.76869 37915 ft 403 kts 218°
2026-05-04 20:39 -25.63223 -57.80281 37914 ft 403 kts 218°
2026-05-04 20:39 -25.67882 -57.83670 37916 ft 403 kts 218°
2026-05-04 20:40 -25.72577 -57.87087 37914 ft 404 kts 218°
2026-05-04 20:40 -25.77280 -57.90508 37912 ft 404 kts 218°
2026-05-04 20:41 -25.81983 -57.93928 37913 ft 404 kts 218°
2026-05-04 20:41 -25.86686 -57.97351 37911 ft 404 kts 218°
2026-05-04 20:42 -25.91391 -58.00780 37912 ft 404 kts 218°
2026-05-04 20:42 -25.96089 -58.04208 37923 ft 404 kts 218°
2026-05-04 20:43 -26.00759 -58.07618 37926 ft 404 kts 218°
2026-05-04 20:43 -26.05458 -58.11053 37900 ft 404 kts 218°
2026-05-04 20:44 -26.10158 -58.14492 37898 ft 404 kts 219°
2026-05-04 20:44 -26.14848 -58.17927 37900 ft 404 kts 219°
2026-05-04 20:45 -26.19314 -58.21655 37916 ft 399 kts 226°
2026-05-04 20:45 -26.23164 -58.26058 37905 ft 395 kts 233°
2026-05-04 20:46 -26.26398 -58.30949 37908 ft 394 kts 237°
2026-05-04 20:46 -26.29560 -58.35934 37908 ft 394 kts 237°
2026-05-04 20:47 -26.32734 -58.40932 37911 ft 394 kts 237°
2026-05-04 20:47 -26.35895 -58.45929 37908 ft 394 kts 237°
2026-05-04 20:48 -26.39057 -58.50935 37910 ft 394 kts 237°
2026-05-04 20:48 -26.42194 -58.55908 37907 ft 394 kts 237°
2026-05-04 20:49 -26.45349 -58.60914 37909 ft 394 kts 237°
2026-05-04 20:49 -26.48504 -58.65926 37910 ft 394 kts 237°
2026-05-04 20:50 -26.51660 -58.70945 37916 ft 394 kts 237°
2026-05-04 20:50 -26.54809 -58.75959 37912 ft 394 kts 237°
2026-05-04 20:51 -26.57958 -58.80978 37908 ft 394 kts 237°
2026-05-04 20:51 -26.61104 -58.85999 37904 ft 394 kts 237°
2026-05-04 20:52 -26.64257 -58.91035 37904 ft 395 kts 237°
2026-05-04 20:52 -26.67385 -58.96037 37902 ft 395 kts 237°
2026-05-04 20:53 -26.70530 -59.01072 37906 ft 395 kts 237°
2026-05-04 20:53 -26.73675 -59.06112 37897 ft 395 kts 237°
2026-05-04 20:54 -26.76817 -59.11154 37910 ft 395 kts 237°
2026-05-04 20:54 -26.79956 -59.16197 37906 ft 395 kts 237°
2026-05-04 20:55 -26.83098 -59.21248 37902 ft 395 kts 237°
2026-05-04 20:55 -26.86239 -59.26303 37904 ft 395 kts 237°
2026-05-04 20:56 -26.89375 -59.31359 37902 ft 395 kts 238°
2026-05-04 20:56 -26.92511 -59.36421 37901 ft 395 kts 238°
2026-05-04 20:57 -26.95624 -59.41449 37899 ft 395 kts 238°
2026-05-04 20:57 -26.98760 -59.46520 37901 ft 395 kts 238°
2026-05-04 20:58 -27.01888 -59.51584 37900 ft 395 kts 238°
2026-05-04 20:58 -27.05018 -59.56659 37903 ft 395 kts 238°
2026-05-04 20:59 -27.08128 -59.61705 37907 ft 395 kts 238°
2026-05-04 20:59 -27.11253 -59.66783 37902 ft 395 kts 238°
2026-05-04 21:00 -27.14379 -59.71867 37901 ft 395 kts 238°
2026-05-04 21:00 -27.17507 -59.76961 37894 ft 395 kts 238°
2026-05-04 21:01 -27.20632 -59.82056 37896 ft 396 kts 238°
2026-05-04 21:01 -27.23751 -59.87145 37890 ft 396 kts 238°
2026-05-04 21:02 -27.26851 -59.92210 37897 ft 396 kts 238°
2026-05-04 21:02 -27.29972 -59.97316 37893 ft 396 kts 238°